Weather Roundup
Issued by NWS Chicago, IL

Home | Current Version | Previous Version | Text Only | Print | Product List | Glossary On
Versions: 1 2 3 4 5 6 7 8 9 10 11 12 13 14 15 16 17 18 19 20 21 22 23 24 25 26 27 28 29 30 31 32 33 34 35 36 37 38 39 40 41 42 43 44 45 46 47 48 49 50
000
NZUS59 KLOT 232110
HRRLOT

CHICAGO AREA WEATHER ROUNDUP
NATIONAL WEATHER SERVICE CHICAGO/ROMEOVILLE IL
400 PM CDT TUE SEP 23 2014

NOTE: "FAIR" INDICATES FEW OR NO CLOUDS BELOW 12,000 FEET WITH NO
SIGNIFICANT WEATHER AND/OR OBSTRUCTIONS TO VISIBILITY.

* THESE STATIONS ARE NOT UNDER NWS QUALITY CONTROL. THEY ALSO MAY NOT
  REPORT WEATHER SUCH AS PRECIPITATION OR FOG.

ILZ005-006-012>014-019>023-232200-
NORTHEAST ILLINOIS

CITY           SKY/WX    TMP DP  RH WIND       PRES   REMARKS
OHARE          MOSUNNY   72  46  39 SW3       30.28F
MIDWAY         MOSUNNY   74  47  38 CALM      30.28F
AURORA         SUNNY     74  48  39 SE6       30.28F
LANSING*       SUNNY     71  47  42 CALM      30.29F
JOLIET*        SUNNY     73  47  40 SE3       30.29F
WAUKEGAN       SUNNY     67  51  56 SE12      30.28F
DUPAGE AIRPORT SUNNY     74  48  39 CALM      30.28F
WHEELING       SUNNY     74  47  38 SE5       30.30F
KANKAKEE*      SUNNY     73  48  42 E3        30.28F
LEWIS AIRPORT* SUNNY     72  46  40 CALM      30.28F
NORTHERLY IS     N/A     66  54  65 E9          N/A
$$

WIZ051-052-058>065-066-070>072-232200-
SOUTHEAST WISCONSIN

CITY           SKY/WX    TMP DP  RH WIND       PRES   REMARKS
MILWAUKEE      MOSUNNY   70  51  51 SE12      30.27F
KENOSHA*       SUNNY     73  51  46 VRB6      30.28F
RACINE*        SUNNY     70  50  49 S9        30.29F
BURLINGTON     SUNNY     72  46  38 S3        30.27F
WAUKESHA       SUNNY     72  46  40 SW7       30.28F
WEST BEND      SUNNY     72  46  40 CALM      30.26F
$$

INZ001>003-010>013-019-020-232200-
NORTHWEST INDIANA

CITY           SKY/WX    TMP DP  RH WIND       PRES   REMARKS
GARY*          MOSUNNY   72  50  46 MISG      30.30F
MICHIGAN CITY* NOT AVBL
RENSSELAER*    NOT AVBL
VALPARAISO     SUNNY     71  47  42 CALM      30.29F
$$

LMZ740>746-232200-
SOUTHERN LAKE MICHIGAN

STATION/POSITION TIME  SKY/WX   TEMP WIND        PRES    VSBY
                                AIR  DIR/SP/G
                 (UTC)          (F)  (DEG/KT/KT) (MB)    (MI)
HARRISON CRIB    NOT AVBL
BURNHAM HARBOR   2100            66   90/  9/ 10   N/A
CALUMET HARBOR   2100            66   60/  9/ 11 1024.5F
BURNS HARBOR     NOT AVBL
MICHIGAN CITY    NOT AVBL
$$

ABBREVIATIONS USED IN REMARKS
   TC - TEMPERATURE IN CELSIUS
  WCI - WIND CHILL INDEX
   HX - HEAT INDEX
  VSB - VISIBILITY
$$


USA.gov is the U.S. government's official web portal to all federal, state and local government web resources and services.